Location: Newark
(5.0949°S, 42.8042°W)
Time: 04:43:54
(UTC+00:00)

Hubble Space Telescope - Visible Passes

Search period start: 23 September 2019 00:00
Search period end: 03 October 2019 00:00
Orbit: 536 x 540 km, 28.5° (Epoch: 22 September)

Date Brightness Start Highest point End Pass type
(mag) Time Alt. Az. Time Alt. Az. Time Alt. Az.
23 Sep 2.8 22:33:56 10° W 22:36:52 22° NW 22:36:52 22° NW visible
24 Sep 3.1 22:24:03 10° WNW 22:26:37 16° NNW 22:27:26 15° NNW visible
25 Sep 3.5 22:14:42 10° NW 22:16:06 11° NNW 22:17:29 10° N visible
27 Sep 1.5 08:16:30 10° NW 08:20:30 50° NNE 08:24:31 10° ESE visible
28 Sep 3.8 06:29:59 11° NE 06:29:59 11° NE 06:30:25 10° NE visible
28 Sep 0.9 08:05:50 10° NW 08:09:56 74° NNE 08:14:04 10° ESE visible
29 Sep 3.9 06:20:32 12° ENE 06:20:32 12° ENE 06:20:56 10° ENE visible
29 Sep 0.7 07:55:54 14° WNW 07:59:23 77° SSW 08:03:31 10° ESE visible
30 Sep 1.0 07:46:23 22° W 07:48:50 53° SSW 07:52:53 10° SE visible
01 Oct 1.5 07:36:48 27° WSW 07:38:17 37° SSW 07:42:09 10° SE visible
02 Oct 1.9 07:27:10 26° SW 07:27:46 27° SSW 07:31:20 10° SSE visible
